Temperature
27 27 26 26 26 25 24 24 24 25 25 25 25 25 24 23 22 22 21 20 20 19 18 18 17 16 16 15 15 14 14 14 13 13 13 13 12 12 12 12 12 12 12 12
26 27 26 26 26 26 25 25 25 25 25 26 25 25 24 23 23 22 21 20 20 19 19 18 17 17 16 15 15 15 14 14 13 13 13 13 12 12 12 12 12 12 12 12
25 26 26 25 26 25 25 25 25 24 25 26 25 25 24 23 23 22 21 20 20 19 19 18 18 17 16 16 15 15 14 14 14 13 13 13 13 12 12 12 12 12 12 12
25 25 24 26 27 27 26 26 26 26 26 26 25 24 24 23 22 22 21 20 20 19 19 18 18 17 17 16 16 15 15 14 14 13 13 13 13 13 13 12 12 12 12 12
25 25 26 26 26 26 26 25 26 26 26 26 25 24 23 23 22 21 21 20 19 19 18 18 18 17 17 17 16 15 15 14 14 13 13 13 13 13 13 12 12 12 12 12
24 24 25 26 27 27 26 25 26 26 26 25 25 23 23 22 21 21 20 19 19 18 18 18 17 17 17 17 16 16 15 14 14 14 13 13 13 13 13 12 12 12 12 12
23 24 25 26 26 25 24 24 26 26 25 25 24 23 22 22 21 20 20 19 18 18 18 17 17 17 17 17 16 16 15 15 14 14 14 14 13 13 13 13 13 13 12 12
24 23 24 25 25 25 25 25 25 25 24 24 23 22 22 21 20 20 19 19 18 18 17 17 17 17 16 16 16 16 15 15 14 14 14 14 13 13 13 13 13 13 12 12
25 24 24 25 25 24 24 24 24 23 23 23 22 22 21 21 20 19 19 18 18 17 17 17 17 16 16 16 16 15 15 15 15 14 14 14 14 14 13 13 13 13 13 12
25 25 24 24 23 23 23 23 22 22 22 22 22 21 21 21 20 19 19 18 18 17 17 17 17 16 16 16 16 15 15 15 15 15 14 14 14 14 14 13 13 13 13 13
25 25 24 23 23 22 22 22 21 21 21 21 21 20 20 20 19 19 18 18 17 17 17 17 16 16 16 16 16 15 15 15 15 15 15 15 15 14 14 14 14 14 13 13
24 25 24 23 22 21 21 21 21 20 20 20 20 19 19 19 18 18 18 17 17 17 16 16 16 16 16 16 16 15 15 15 15 15 15 15 15 15 14 14 14 14 14 14
25 25 24 23 22 21 20 20 20 19 19 19 18 18 18 18 17 17 17 17 16 16 16 16 16 16 16 16 15 15 15 15 14 14 14 14 14 14 14 14 14 14 14 14
24 23 22 21 20 20 20 19 19 18 18 18 17 17 17 17 16 16 16 16 15 15 15 15 15 15 15 15 15 15 14 14 14 14 14 14 14 14 14 14 14 14 14 14
22 22 21 21 20 19 19 18 18 18 17 16 16 16 16 16 15 15 15 14 14 14 14 14 14 14 14 14 14 14 14 13 13 14 14 14 14 14 14 14 14 14 14 14
21 20 20 19 19 18 18 18 17 17 16 16 15 15 15 14 14 14 13 13 13 13 13 13 13 13 13 13 13 13 13 13 13 13 13 13 13 13 13 14 14 14 14 14
20 19 19 18 18 18 18 17 17 16 15 15 14 14 14 13 13 12 12 12 12 12 12 12 12 12 12 12 12 12 12 12 12 12 12 12 12 12 13 13 13 13 14 14
20 19 19 18 17 17 17 16 16 15 14 13 13 13 13 12 12 12 11 11 11 11 11 11 11 10 11 11 11 11 11 10 11 11 11 11 11 11 12 12 12 12 13 13
18 18 18 17 17 16 16 15 14 14 13 12 12 12 12 11 11 11 11 11 10 10 10 10 10 10 10 10 10 10 10 9 9 9 10 10 10 10 11 11 11 11 11 12
16 16 16 16 15 15 14 14 13 12 12 12 11 11 11 10 10 10 10 10 9 9 8 9 9 9 9 9 9 9 8 8 8 8 8 8 8 9 9 9 9 10 10 10
14 14 14 14 13 13 12 12 12 11 11 11 11 10 10 10 9 9 9 8 8 8 8 8 8 8 8 8 8 7 7 7 7 7 7 7 7 7 7 7 8 8 8 8
13 12 12 12 12 11 11 11 11 10 10 10 10 10 9 9 9 8 8 8 7 7 7 7 7 7 7 7 6 6 6 6 6 6 6 6 6 6 6 6 6 6 6 7
12 11 11 11 11 10 10 10 10 9 9 9 9 9 9 8 8 8 7 7 7 7 7 6 6 6 6 6 6 6 6 6 6 5 5 5 5 5 5 5 5 5 5 5
11 11 10 10 10 10 10 9 9 9 9 8 8 8 8 8 7 7 7 7 7 6 6 6 6 6 6 5 6 5 5 5 5 5 5 4 4 4 4 4 4 4 4 4
10 10 10 10 10 9 9 9 8 8 8 8 8 8 8 7 7 7 7 6 6 6 6 5 5 5 5 5 5 5 5 5 4 4 4 4 4 4 4 4 3 3 3 3
10 9 9 9 9 9 8 8 8 8 8 8 7 7 7 7 7 6 6 6 6 6 6 5 5 5 5 5 5 5 4 4 4 4 4 4 4 3 3 3 3 3 3 3
9 9 8 8 8 8 8 8 8 8 8 7 7 7 7 6 6 6 6 6 6 6 5 5 5 5 5 5 4 4 4 4 4 4 3 3 3 3 3 3 2 2 2 2
Wind_Speed
7 3 4 6 6 8 9 8 7 6 5 4 4 3 3 3 4 4 4 4 4 4 4 4 3 2 2 1 0 1 0 2 3 4 4 5 6 6 6 7 8 7 6 6
9 7 6 8 9 9 10 9 9 8 6 2 4 2 1 2 4 3 3 3 3 3 3 4 4 4 4 2 1 1 0 1 1 2 3 4 5 5 5 6 6 6 6 6
10 6 6 9 12 13 10 8 7 7 3 2 1 0 0 1 2 3 3 3 3 3 3 2 3 3 4 3 2 2 1 1 1 2 3 4 5 5 5 5 5 5 6 6
8 6 8 1 4 4 8 9 7 5 2 0 1 1 2 2 1 2 3 3 3 2 2 1 2 3 2 3 2 1 1 1 1 1 2 3 4 5 5 4 4 4 4 4
7 8 7 5 6 5 5 6 6 5 2 1 1 2 3 4 4 3 3 4 3 2 2 2 1 1 1 2 3 2 1 0 0 1 0 2 3 4 4 4 4 4 3 3
6 6 5 5 9 5 2 4 5 4 2 2 1 1 3 6 6 5 5 4 4 2 2 2 2 1 2 2 2 2 2 1 1 1 1 2 2 3 3 4 4 4 3 3
9 7 2 8 9 5 3 2 5 5 3 2 1 4 6 6 6 6 5 4 4 2 2 2 2 1 3 1 0 1 1 1 1 2 3 3 2 3 3 3 4 4 4 2
8 8 4 9 8 4 3 5 5 4 4 3 4 5 5 5 5 6 5 4 3 2 2 2 2 2 3 1 1 1 1 2 3 4 4 3 3 3 4 4 5 5 4 3
3 2 6 3 4 4 3 3 4 3 4 3 3 3 4 4 4 5 4 4 3 2 2 2 2 2 3 2 1 2 3 4 5 5 5 4 4 4 4 4 4 4 3 3
3 4 6 5 4 4 2 2 3 3 3 2 2 3 3 3 4 4 4 3 3 3 2 2 3 3 3 2 2 3 5 5 5 5 5 4 4 4 4 3 3 3 3 3
7 4 4 6 6 5 4 4 3 3 3 3 3 3 3 3 4 4 3 3 2 1 2 2 2 3 3 2 3 4 6 6 6 5 5 4 4 5 5 4 4 4 4 3
6 6 6 7 10 8 7 6 5 5 5 4 4 3 3 4 4 4 4 3 2 1 1 2 1 0 0 1 3 5 5 5 4 3 3 4 4 5 9 10 10 11 10 7
4 0 2 7 9 8 7 7 5 5 5 5 4 4 4 5 5 4 4 4 3 2 2 2 3 3 3 2 3 4 5 5 4 4 4 4 4 5 5 7 12 13 13 13
4 5 5 6 7 8 8 8 7 6 6 5 5 5 5 5 5 5 5 5 4 4 4 4 5 6 6 6 5 5 5 5 5 4 4 5 5 5 5 5 5 6 11 17
5 5 5 6 8 8 8 8 8 7 7 6 6 5 5 6 6 6 6 6 5 6 6 6 7 7 7 8 7 7 5 4 4 5 5 5 5 5 5 6 6 6 5 7
7 6 7 8 9 10 10 10 9 8 8 7 6 6 6 7 7 6 6 6 6 7 7 7 8 7 8 8 8 7 6 8 7 5 5 5 5 5 5 6 6 5 5 4
9 9 10 11 10 10 10 9 8 9 9 8 7 7 7 8 7 7 6 7 7 8 8 8 8 8 8 9 9 7 6 7 8 6 5 5 5 6 6 6 6 5 5 5
8 8 10 11 11 9 9 9 9 9 9 8 8 7 7 7 7 6 6 6 7 8 8 8 7 7 8 9 9 7 7 6 6 6 5 5 6 6 6 6 7 7 6 6
4 4 6 7 9 9 9 9 9 9 9 8 8 8 7 7 7 7 7 7 7 7 6 7 9 8 8 10 10 6 7 7 6 6 6 9 8 7 7 7 7 8 7 7
3 4 6 7 8 9 9 10 10 9 9 9 9 8 8 7 7 7 8 7 6 4 4 6 7 7 8 10 11 6 7 7 7 7 7 7 7 8 8 8 8 9 9 8
4 6 7 8 8 9 9 10 9 9 8 8 8 8 7 7 6 6 6 6 5 5 4 5 5 6 7 9 9 6 6 7 7 7 8 8 8 8 8 9 9 9 10 10
6 7 8 8 9 9 8 9 9 9 8 7 7 7 7 7 7 6 6 4 4 4 3 3 4 6 10 10 5 5 5 6 6 6 7 7 7 8 8 9 9 9 9 9
6 7 8 9 9 9 9 8 8 8 7 7 6 6 6 5 4 4 4 4 4 4 2 3 4 8 11 6 4 4 5 5 5 6 6 6 6 7 7 8 8 8 8 8
7 8 8 8 8 8 8 7 7 6 6 6 5 5 5 4 3 4 4 5 4 2 0 1 3 7 8 4 3 3 3 4 4 4 5 5 5 6 6 7 7 7 8 9
7 7 7 7 7 6 7 7 7 6 6 5 5 5 4 3 3 3 3 3 3 3 2 2 5 6 4 3 3 4 4 3 4 4 4 4 5 5 5 6 6 7 7 7
6 5 5 5 4 4 4 5 5 5 5 4 4 4 3 3 3 3 2 3 3 3 2 3 3 3 2 2 3 4 4 5 5 4 4 5 5 6 6 6 8 7 7 7
6 5 4 4 4 3 3 4 4 4 4 4 4 4 3 3 2 2 2 2 1 2 2 2 2 2 2 3 3 4 4 4 4 4 5 5 5 5 6 7 7 7 7 7
Wind_Direction
285 288 276 268 241 210 228 253 277 315 340 348 45 64 91 135 154 166 173 178 178 179 183 177 184 152 134 135 268 300 343 3 12 4 6 356 344 342 353 353 351 351 1 4
279 262 248 255 246 232 227 241 261 282 292 19 73 75 92 155 156 165 179 185 189 182 173 193 175 159 164 172 207 248 221 47 27 5 355 344 334 339 351 351 346 353 360 9
280 256 234 251 232 221 223 225 236 257 281 42 45 101 116 120 137 159 171 172 173 192 186 195 153 146 156 167 193 218 170 118 58 14 352 342 343 346 342 344 350 355 360 11
271 249 249 135 73 183 211 220 222 233 258 5 351 80 119 110 114 140 147 149 160 185 174 168 152 142 153 168 175 165 98 74 108 54 351 340 338 332 331 338 349 352 355 356
262 263 253 172 162 167 197 216 207 216 195 162 129 192 169 132 105 88 100 118 126 148 149 162 128 124 189 196 163 152 130 296 147 132 290 310 318 322 325 336 338 335 337 335
265 267 277 115 121 128 212 227 169 167 159 144 208 226 112 107 104 97 91 98 109 133 160 153 138 139 256 246 159 150 162 220 201 191 244 265 291 303 304 309 313 316 321 336
261 265 261 117 118 132 219 114 112 121 118 124 106 67 93 101 104 103 106 110 125 158 163 142 142 186 255 268 110 119 139 195 232 232 241 239 250 271 286 293 303 306 310 310
226 244 228 141 151 176 96 91 85 88 84 86 81 82 92 98 111 122 127 132 145 168 171 167 174 222 259 249 139 125 171 237 254 254 259 258 238 254 266 276 283 284 288 291
213 129 100 124 119 91 65 94 91 82 76 90 108 108 109 118 123 129 136 144 156 179 194 190 186 218 266 246 192 214 227 237 243 245 242 234 235 249 257 262 267 276 281 287
263 177 161 158 138 128 117 99 89 88 94 107 119 111 110 117 115 114 123 132 151 180 210 213 194 194 244 260 241 239 243 246 245 242 245 235 221 231 243 256 267 277 283 284
250 199 163 174 174 166 153 150 138 122 111 101 102 99 96 96 91 95 101 110 125 176 226 248 219 195 212 231 251 261 260 255 250 238 235 242 235 226 231 233 224 232 255 275
239 217 212 190 173 171 168 165 157 148 132 117 109 104 97 89 81 79 85 89 102 119 284 299 312 355 334 244 252 270 277 279 278 270 249 235 241 251 237 232 233 229 228 231
257 333 104 121 142 160 164 159 156 148 135 127 114 104 99 91 82 76 73 70 63 50 31 10 10 16 6 351 315 289 284 284 281 278 275 261 250 248 260 254 243 243 241 238
131 127 142 156 160 167 167 162 155 143 129 119 111 106 102 95 87 77 68 65 59 51 42 31 27 19 2 353 335 310 299 293 295 284 276 270 266 261 255 255 255 247 238 235
197 200 183 161 160 166 165 163 159 149 138 127 117 112 109 104 94 80 66 62 64 56 43 35 30 16 0 356 345 328 316 307 305 300 290 283 278 274 269 266 263 258 252 233
203 192 167 168 176 176 174 173 165 154 143 132 125 119 111 105 98 89 75 65 66 61 48 38 26 7 2 2 347 333 323 320 317 304 298 296 293 290 286 280 274 269 262 252
193 193 190 188 187 185 179 171 161 151 143 137 131 124 118 112 104 94 85 78 72 63 50 37 18 1 10 11 352 338 330 327 326 318 311 309 309 306 303 300 296 291 281 268
207 203 196 189 184 177 167 157 148 143 138 134 133 129 124 120 113 104 92 85 81 67 47 30 12 1 19 18 355 340 337 338 338 337 334 333 326 321 320 319 318 314 310 303
202 191 180 172 166 160 155 148 142 137 135 137 136 128 117 109 104 99 90 77 70 61 39 19 8 15 23 14 357 340 342 344 347 347 347 345 345 344 343 340 337 334 332 333
152 148 142 139 139 138 136 135 135 135 137 138 133 127 122 117 113 106 97 86 70 49 30 18 18 23 18 3 354 350 352 355 358 357 357 355 352 352 351 350 348 348 348 347
137 136 135 135 130 129 132 135 136 137 137 138 134 130 124 118 112 107 104 98 81 42 16 24 35 26 10 351 347 357 359 3 4 4 2 359 357 356 356 356 355 354 354 353
144 142 143 139 138 139 138 138 138 138 135 131 129 128 126 122 115 104 97 101 97 60 24 34 40 12 354 346 343 356 1 4 5 2 359 356 356 355 356 355 353 354 354 352
157 156 153 152 154 148 142 141 141 140 139 139 139 134 124 112 116 123 118 103 93 68 38 36 14 350 343 341 339 356 1 3 2 357 351 349 349 349 350 350 348 347 347 347
165 162 160 159 154 150 150 144 137 136 137 134 133 133 133 134 130 116 113 120 123 117 55 360 330 329 330 322 335 356 356 352 345 339 336 337 339 339 341 341 339 339 339 340
168 164 161 159 158 155 152 147 146 147 149 151 152 151 144 130 128 126 127 141 157 191 231 265 294 302 300 315 344 346 337 327 323 318 317 323 326 328 329 330 333 331 331 331
167 160 156 161 152 139 149 157 162 163 167 164 156 151 143 137 137 145 162 185 201 211 239 256 270 280 305 336 330 319 315 319 325 325 326 328 329 330 326 326 326 324 321 320
165 153 147 157 148 160 170 171 171 170 169 163 159 152 147 149 159 171 189 211 224 237 258 280 296 305 309 303 299 303 310 317 321 323 325 325 322 321 322 323 321 318 317 315
Height
1489 1489 1492 1495 1497 1500 1505 1506 1510 1505 1502 1499 1497 1500 1502 1504 1506 1507 1509 1510 1511 1512 1513 1513 1513 1513 1513 1512 1512 1511 1509 1508 1506 1504 1502 1500 1498 1496 1493 1490 1488 1486 1483 1480
1492 1488 1490 1495 1494 1495 1499 1500 1502 1502 1501 1495 1497 1499 1501 1502 1504 1506 1507 1509 1510 1511 1511 1512 1512 1512 1511 1511 1511 1510 1509 1508 1506 1504 1502 1500 1498 1496 1493 1491 1489 1486 1483 1480
1497 1488 1492 1499 1488 1490 1493 1493 1497 1501 1498 1494 1496 1498 1499 1501 1502 1504 1505 1507 1508 1509 1510 1510 1511 1511 1510 1510 1510 1509 1509 1507 1506 1504 1502 1500 1498 1496 1494 1492 1489 1486 1484 1481
1496 1495 1508 1490 1477 1479 1485 1488 1489 1491 1492 1493 1495 1497 1498 1500 1501 1502 1503 1505 1506 1507 1508 1509 1510 1510 1510 1509 1509 1509 1508 1507 1505 1503 1502 1500 1498 1496 1494 1492 1490 1487 1485 1483
1495 1498 1490 1484 1478 1480 1486 1488 1485 1487 1490 1492 1494 1496 1497 1499 1500 1501 1502 1503 1504 1506 1507 1508 1508 1509 1509 1509 1508 1508 1507 1506 1505 1503 1501 1499 1498 1496 1494 1493 1491 1488 1486 1484
1494 1501 1499 1482 1476 1479 1485 1490 1483 1486 1488 1491 1493 1496 1497 1498 1499 1500 1501 1502 1503 1504 1505 1506 1507 1507 1507 1508 1507 1506 1505 1505 1503 1502 1501 1499 1497 1496 1494 1493 1491 1489 1487 1485
1499 1497 1485 1478 1478 1482 1496 1491 1483 1485 1488 1490 1492 1495 1497 1497 1498 1499 1500 1501 1502 1503 1504 1505 1505 1506 1506 1506 1506 1505 1504 1503 1502 1501 1500 1498 1497 1495 1494 1492 1491 1489 1488 1486
1491 1497 1490 1477 1479 1483 1485 1484 1485 1486 1488 1490 1492 1494 1496 1497 1498 1498 1499 1500 1501 1502 1503 1503 1504 1504 1504 1504 1504 1503 1502 1501 1500 1499 1498 1497 1496 1494 1493 1492 1490 1489 1488 1486
1477 1483 1478 1477 1478 1481 1482 1484 1486 1487 1489 1490 1492 1494 1495 1496 1497 1497 1498 1499 1499 1500 1501 1502 1502 1502 1502 1502 1502 1501 1500 1499 1499 1498 1497 1496 1495 1493 1492 1491 1490 1488 1487 1486
1472 1473 1475 1477 1479 1481 1482 1484 1485 1487 1488 1489 1491 1492 1494 1495 1496 1496 1497 1497 1498 1499 1499 1500 1500 1500 1500 1500 1499 1499 1498 1497 1497 1496 1495 1494 1493 1492 1490 1489 1488 1487 1486 1484
1471 1471 1474 1476 1477 1479 1481 1483 1484 1486 1487 1488 1490 1491 1492 1493 1494 1495 1495 1496 1496 1497 1497 1498 1498 1498 1497 1497 1497 1496 1496 1495 1495 1494 1493 1491 1490 1489 1488 1487 1486 1485 1483 1482
1469 1467 1469 1471 1473 1476 1479 1481 1482 1484 1486 1487 1488 1489 1491 1492 1492 1493 1494 1494 1495 1495 1496 1496 1496 1496 1495 1494 1494 1493 1493 1493 1492 1491 1490 1489 1487 1486 1485 1484 1483 1482 1481 1480
1463 1464 1465 1467 1471 1473 1476 1478 1480 1482 1484 1485 1486 1488 1489 1490 1491 1491 1492 1492 1493 1493 1493 1494 1494 1493 1493 1492 1491 1490 1490 1489 1488 1488 1486 1485 1484 1483 1481 1480 1479 1478 1477 1476
1460 1462 1465 1467 1469 1472 1474 1476 1478 1480 1482 1483 1484 1486 1487 1488 1489 1490 1490 1491 1491 1491 1491 1491 1491 1490 1490 1489 1488 1487 1486 1486 1485 1484 1483 1481 1480 1479 1478 1477 1475 1474 1473 1472
1458 1460 1462 1464 1467 1469 1471 1474 1476 1478 1480 1481 1483 1484 1485 1486 1487 1488 1488 1489 1489 1489 1489 1489 1489 1488 1487 1486 1485 1484 1483 1482 1481 1480 1478 1477 1476 1475 1474 1473 1472 1470 1469 1468
1455 1457 1459 1461 1464 1466 1469 1471 1473 1475 1477 1479 1481 1482 1483 1484 1485 1486 1487 1487 1488 1487 1487 1487 1486 1486 1485 1483 1482 1481 1480 1479 1478 1476 1475 1473 1472 1471 1470 1469 1468 1466 1465 1464
1451 1453 1455 1458 1460 1463 1466 1468 1470 1473 1475 1477 1479 1480 1482 1483 1484 1485 1486 1486 1486 1486 1486 1486 1485 1484 1483 1481 1479 1478 1477 1476 1475 1473 1472 1470 1469 1468 1466 1465 1464 1462 1461 1460
1447 1449 1451 1453 1457 1460 1463 1465 1468 1470 1472 1474 1476 1478 1480 1481 1482 1483 1484 1485 1485 1485 1485 1484 1483 1482 1481 1479 1478 1476 1475 1473 1472 1471 1469 1468 1466 1465 1463 1462 1460 1458 1457 1455
1443 1446 1448 1451 1453 1456 1459 1462 1465 1468 1470 1472 1475 1477 1478 1480 1481 1482 1483 1483 1483 1483 1483 1483 1482 1481 1480 1478 1476 1474 1473 1472 1470 1469 1467 1465 1464 1462 1460 1458 1457 1455 1453 1451
1442 1444 1447 1449 1452 1455 1458 1460 1463 1466 1468 1471 1473 1475 1477 1478 1480 1481 1481 1482 1482 1482 1482 1482 1481 1479 1478 1477 1475 1473 1472 1471 1469 1467 1465 1464 1462 1460 1458 1456 1454 1452 1450 1448
1443 1445 1447 1449 1452 1454 1457 1460 1462 1465 1467 1470 1472 1474 1475 1477 1479 1480 1480 1480 1481 1481 1481 1480 1480 1478 1477 1475 1474 1473 1471 1470 1468 1466 1464 1463 1461 1459 1457 1455 1452 1450 1447 1445
1444 1446 1448 1450 1452 1455 1457 1460 1462 1464 1466 1469 1471 1472 1474 1476 1477 1478 1479 1479 1480 1480 1480 1479 1478 1477 1476 1474 1473 1472 1471 1469 1467 1466 1464 1462 1460 1458 1456 1453 1451 1448 1446 1443
1445 1447 1449 1451 1453 1455 1458 1460 1462 1464 1466 1468 1470 1472 1473 1474 1475 1477 1478 1478 1478 1478 1478 1478 1477 1476 1475 1474 1473 1472 1470 1469 1467 1465 1463 1461 1459 1457 1455 1452 1450 1447 1444 1441
1445 1447 1449 1451 1454 1456 1458 1460 1461 1463 1465 1467 1469 1470 1472 1473 1474 1475 1476 1476 1477 1477 1477 1476 1476 1475 1474 1473 1472 1471 1470 1468 1466 1464 1462 1460 1458 1456 1453 1451 1448 1445 1442 1439
1445 1447 1449 1451 1453 1455 1457 1459 1460 1462 1464 1466 1467 1469 1470 1471 1473 1473 1474 1475 1475 1475 1475 1475 1475 1474 1473 1472 1471 1470 1468 1467 1465 1463 1461 1459 1456 1454 1451 1449 1446 1443 1439 1436
1445 1446 1448 1450 1452 1454 1455 1457 1459 1461 1463 1464 1466 1467 1468 1469 1470 1471 1472 1473 1473 1473 1473 1473 1473 1472 1471 1470 1469 1468 1466 1464 1463 1461 1459 1456 1454 1451 1449 1446 1443 1439 1436 1432
1443 1445 1446 1449 1450 1452 1454 1456 1457 1459 1461 1462 1464 1465 1466 1468 1469 1470 1471 1471 1471 1471 1471 1471 1471 1470 1469 1468 1466 1465 1463 1461 1460 1458 1455 1453 1450 1448 1445 1442 1439 1435 1432 1428